This demonstration page uses our WeatherBlox Daily Observations layout. Learn more.

Left ArrowRight Arrow

53.62937, 11.41316

Hourly Observations for November 25, 2020

Temp ( °F °C ) Dew Point ( °F °C ) Humidity (%) Winds ( mph kmh ) Pressure ( in mb ) Visibility ( mi km ) Precip ( " mm )
6:50 am 06:50 Mostly Clear 34 1 34 1 100 100 ESE 3 6 30.03 1017 5 8 N/A
7:20 am 07:20 Mostly Clear 34 1 34 1 100 100 SE 3 6 30.03 1017 6 9 N/A
7:50 am 07:50 Mostly Clear 34 1 34 1 100 100 E 3 6 30.03 1017 4 7 N/A
8:20 am 08:20 Mostly Sunny 34 1 34 1 100 100 SSE 5 7 30.03 1017 6 9 N/A
8:50 am 08:50 Mostly Sunny 34 1 34 1 100 100 SSE 6 9 30.06 1018 4 7 N/A
9:20 am 09:20 Mostly Sunny 36 2 34 1 93 93 SE 7 11 30.06 1018 4 6 N/A
9:50 am 09:50 Mostly Cloudy with Mist and Fog 36 2 34 1 93 93 SE 8 13 30.06 1018 2 3 N/A
10:20 am 10:20 Mostly Cloudy with Mist and Fog 34 1 34 1 100 100 SSE 8 13 30.06 1018 1 2 N/A
10:50 am 10:50 Mostly Cloudy with Mist and Fog 34 1 34 1 100 100 SSE 7 11 30.06 1018 1 2 N/A
11:20 am 11:20 Mostly Cloudy with Mist and Fog 34 1 34 1 100 100 SSE 7 11 30.06 1018 1 2 N/A
11:50 am 11:50 Mostly Cloudy with Mist and Fog 34 1 34 1 100 100 SSE 8 13 30.06 1018 1 2 N/A
12:20 pm 12:20 Mostly Cloudy with Mist and Fog 36 2 36 2 100 100 SSE 8 13 30.03 1017 2 3 N/A
12:50 pm 12:50 Mostly Cloudy with Mist and Fog 36 2 36 2 100 100 SSE 6 9 30.03 1017 3 5 N/A
1:20 pm 13:20 Mostly Cloudy with Mist and Fog 37 3 37 3 100 100 SSE 7 11 30.03 1017 3 5 N/A
1:50 pm 13:50 Mostly Cloudy with Mist and Fog 37 3 37 3 100 100 SE 7 11 30.03 1017 2 4 N/A
2:20 pm 14:20 Mostly Cloudy with Mist and Fog 37 3 37 3 100 100 SSE 6 9 30.03 1017 3 5 N/A
2:50 pm 14:50 Mostly Cloudy with Mist and Fog 37 3 37 3 100 100 SE 6 9 30.03 1017 2 4 N/A
3:20 pm 15:20 Mostly Cloudy with Mist and Fog 37 3 37 3 100 100 SSE 7 11 30.03 1017 2 4 N/A
3:50 pm 15:50 Mostly Cloudy with Mist and Fog 37 3 37 3 100 100 SE 7 11 30.03 1017 2 4 N/A
4:20 pm 16:20 Mostly Cloudy with Mist and Fog 37 3 37 3 100 100 SSE 9 15 30.03 1017 3 5 N/A
4:50 pm 16:50 Mostly Cloudy with Mist and Fog 37 3 37 3 100 100 SE 8 13 30.03 1017 2 3 N/A
5:20 pm 17:20 Mostly Cloudy with Mist and Fog 37 3 37 3 100 100 SSE 9 15 30.03 1017 2 3 N/A
5:50 pm 17:50 Cloudy with Mist and Fog 37 3 37 3 100 100 SE 8 13 30.03 1017 1 2 N/A
6:20 pm 18:20 Cloudy with Mist and Fog 37 3 37 3 100 100 SSE 7 11 30.03 1017 1 2 N/A
6:50 pm 18:50 Cloudy with Mist and Fog 37 3 37 3 100 100 SSE 7 11 30.03 1017 1 2 N/A
7:20 pm 19:20 Cloudy with Mist and Fog 37 3 37 3 100 100 SSE 6 9 30.03 1017 2 3 N/A
7:50 pm 19:50 Mostly Cloudy with Mist and Fog 37 3 37 3 100 100 SE 6 9 30.03 1017 2 3 N/A
8:20 pm 20:20 Mostly Cloudy with Mist and Fog 37 3 37 3 100 100 SSE 6 9 30.03 1017 2 3 N/A
8:50 pm 20:50 Mostly Cloudy with Mist and Fog 37 3 37 3 100 100 SE 6 9 30.03 1017 2 4 N/A
9:20 pm 21:20 Mostly Cloudy 37 3 37 3 100 100 SSE 5 7 30.03 1017 3 5 N/A
9:50 pm 21:50 Partly Cloudy with Mist and Fog 36 2 36 2 100 100 SE 3 6 30.06 1018 3 5 N/A

Powered by AerisWeather